Details for EasyJet at LFBO




Go Back


Latest METAR
Local Time

LFBO 240730Z AUTO 14008KT CAVOK 18/14 Q1017 NOSIG

24/05/2018, 09:40:00

Description
Results
EasyJet Logo
Number of Pilots based at LFBO
0 Pilots Based here
Number of EasyJet Flights Departed from LFBO
0 Flights Departed
Number of EasyJet Flights Arrived at LFBO
2 Flights Arrived
Number of EasyJet Schedules Departing from LFBO
116 Schedules
Number of EasyJet Schedules Arriving at LFBO
119 Schedules
Number of EasyJet Schedules Departing from LFBO availible today
42 Schedules Today
Number of EasyJet Schedules Arriving at LFBO availible today
41 Schedules Today
Average Landing Rate at LFBO
-218 fpm
EasyJet Average Landing Rate at LFBO
-182 fpm
Total Fuel Purchased at LFBO by EasyJet
0.00 kgs / 0.00 lbs

Pilots Based at LFBO


Pilot ID
Pilot Name
Pilot Rank
No. of Flights
No. of Flying Hours
There are no pilots assigned to this hub!   Will you be the first?
Content